TimeMDT,TemperatureF,Dew PointF,Humidity,Sea Level PressureIn,VisibilityMPH,Wind Direction,Wind SpeedMPH,Gust SpeedMPH,PrecipitationIn,Events,Conditions,WindDirDegrees,DateUTC
12:55 AM,48.9,41.0,74,29.90,10.0,West,3.5,-,N/A,,Scattered Clouds,260,2011-10-23 06:55:00
1:55 AM,48.9,41.0,74,29.91,10.0,West,8.1,-,N/A,,Mostly Cloudy,280,2011-10-23 07:55:00
2:55 AM,48.0,41.0,77,29.91,10.0,West,4.6,-,N/A,,Clear,260,2011-10-23 08:55:00
3:55 AM,50.0,41.0,71,29.88,10.0,West,5.8,-,N/A,,Clear,280,2011-10-23 09:55:00
4:55 AM,45.0,39.0,80,29.90,10.0,West,8.1,-,N/A,,Clear,270,2011-10-23 10:55:00
5:55 AM,41.0,37.0,86,29.94,10.0,West,8.1,-,N/A,,Clear,280,2011-10-23 11:55:00
6:55 AM,44.1,37.0,76,29.95,10.0,West,10.4,-,N/A,,Clear,270,2011-10-23 12:55:00
7:55 AM,46.9,37.0,68,29.97,10.0,West,12.7,-,N/A,,Clear,280,2011-10-23 13:55:00
8:55 AM,55.0,37.0,51,29.97,10.0,WNW,11.5,-,N/A,,Clear,290,2011-10-23 14:55:00
9:55 AM,63.0,36.0,37,29.96,10.0,WNW,19.6,23.0,N/A,,Clear,300,2011-10-23 15:55:00
10:55 AM,66.0,33.1,29,29.96,10.0,NW,20.7,27.6,N/A,,Clear,310,2011-10-23 16:55:00
11:55 AM,66.9,32.0,27,29.96,10.0,NW,16.1,27.6,N/A,,Clear,310,2011-10-23 17:55:00
12:55 PM,69.1,33.1,26,29.94,10.0,WNW,18.4,28.8,N/A,,Clear,300,2011-10-23 18:55:00
1:55 PM,70.0,32.0,25,29.92,10.0,WNW,18.4,27.6,N/A,,Partly Cloudy,290,2011-10-23 19:55:00
2:55 PM,70.0,32.0,25,29.92,10.0,West,17.3,-,N/A,,Mostly Cloudy,280,2011-10-23 20:55:00
3:55 PM,70.0,33.1,26,29.92,10.0,WNW,17.3,26.5,N/A,,Partly Cloudy,300,2011-10-23 21:55:00
4:55 PM,68.0,33.1,27,29.94,10.0,WNW,17.3,28.8,N/A,,Clear,300,2011-10-23 22:55:00
5:55 PM,61.0,36.0,39,29.98,10.0,West,9.2,-,N/A,,Clear,280,2011-10-23 23:55:00
6:55 PM,55.0,36.0,49,29.99,10.0,WSW,4.6,-,N/A,,Clear,250,2011-10-24 00:55:00
7:55 PM,48.9,35.1,59,30.01,10.0,WSW,6.9,-,N/A,,Clear,250,2011-10-24 01:55:00
8:55 PM,48.0,35.1,61,30.01,10.0,Calm,Calm,-,N/A,,Clear,0,2011-10-24 02:55:00
9:55 PM,46.0,35.1,66,30.01,10.0,West,3.5,-,N/A,,Clear,280,2011-10-24 03:55:00
10:55 PM,44.1,35.1,71,30.02,10.0,WSW,5.8,-,N/A,,Clear,250,2011-10-24 04:55:00
11:55 PM,45.0,36.0,71,30.02,10.0,West,5.8,-,N/A,,Clear,270,2011-10-24 05:55:00